Location: ?????? ??????
(44.3742°N, 135.2221°E)
Time: 06:49:34
(UTC+00:00)

Cosmos 2082 Rocket - Pass Details

Date: 19 May 2025
Orbit: 832 x 853 km, 71.0° (Epoch: 15 June)

Event Time Altitude Azimuth Distance (km) Brightness Sun altitude
Exits shadow 14:54:59 - 259° (W) 2,565 4.6 -25.7°
Reaches altitude 10° 14:55:25 10° 263° (W) 2,440 4.5 -25.7°
Maximum altitude 14:59:39 22° 312° (NW) 1,770 4.3 -25.7°
Drops below altitude 10° 15:03:55 10° 2° (N) 2,456 5.7 -25.7°
Sets 15:06:58 0° 17° (NNE) 3,398 6.6 -25.7°
